CZ-6A R/B

Satellite information

Favourite Embed

Satellite Type and Status

ROCKET BODYIN ORBIT

Key statistics

Satellite CZ-6A R/B at a glance.

Uptime

664

Days in orbit

Revolutions

≈ 14.3

Per day

Orbit

LEO

Low Earth Orbit

Inclination

86.0

Latest

Satellite identification and parameters

Extended collection of information and parameters for CZ-6A R/B.

Object identification

Identified? True

Debris? False

Object name: CZ-6A R/B

International designator: 2023-139B

Object number (NORAD): 57831

Object ID (CCSDS): 57831

Country: PEOPLES REPUBLIC OF CHINA (PRC)

Current information (Y/N): Y

RCS size: LARGE

Orbital parameters

Period: 100.883 minutes

Inclination: 85.9879 deg

SMA: 7178.587 km

Apoapsis: 808.267 km

Periapsis: 792.638 km

RAAN: 48.629 deg

Eccentricy: 0.0010886

Argument of periapsis: 297.1144 deg

Mean anomaly: 62.8936 deg

Mean motion: 14.27395371 rev/day

Mean motion (dot): 0.0000028 rev/day2

B* drag term: 0.00010645 1/REarth

Two-line elements (TLE)

Creation date: July 4, 2025, 6:39 p.m.

Reference frame: TEME

Reference center: EARTH

Epoch: July 4, 2025, 2:46 p.m. UTC

TLE line 0: 0 CZ-6A R/B

TLE line 1: 1 57831U 23139B 25185.61573037 .00000280 00000-0 10645-3 0 9994

TLE line 2: 2 57831 85.9879 48.6290 0010886 297.1144 62.8936 14.27395371 94607

Live tracking on map

Real-time ground track for satellite CZ-6A R/B.

In-orbit conjunctions

A list of the most updated potential collisions computed for object CZ-6A R/B.

Target Orbit TCA Probability of collision Miss distance Type
DMSP 5D-2 F13 DEB SSO 2025-02-05 08:17:28 0.0005729979 224.0 (m) DEBRIS
NOAA 16 DEB SSO 2025-01-29 09:41:14 0.0001356934 996.0 (m) DEBRIS
SL-16 DEB LEO 2024-12-24 15:20:33 0.0002185294 94.0 (m) DEBRIS
RESURS O1-N4 SSO 2024-12-06 20:48:07 0.000177501 77.0 (m) PAYLOAD
CZ-6A DEB SSO 2024-11-19 20:03:34 0.002192129 46.0 (m) DEBRIS

Associated space launch

3 Chinese reconnaissance satellites of unknown purposes, officially reported as for "Electromagnetic environment probing" purposes.

CZ-6A R/B was lifted into orbit during the mission ‘Long March 6A | Yaogan 40’, on board a Long March 6A space rocket.

The launch took place on Sept. 10, 2023, 4:30 a.m. from Launch Complex 9A.

For more information about the launch, click the button.

Launch to space Long March 6A | Yaogan 40
Long March 6A | Yaogan 40

Agency: N/A

Status: Launch Successful

Launch date: Sept. 10, 2023, 4:30 a.m. UTC

Rocket: Long March 6A

Launch pad: Launch Complex 9A

Location: Taiyuan Satellite Launch Center, People's Republic of China

...

Latest news about this satellite

There are no fresh news available about this satellite. Check back as we update our databases every day.


Newsletter sign-up

Weekly statistics, charts and insights to help you stay on top of the space industry.